Hourly Data Report for June 10, 2012

All times are specified in Local Standard Time (LST). Add 1 hour to adjust for Daylight Saving Time where and when it is observed.

MONCTON INTL A
NEW BRUNSWICK

46°06'44.000" N
64°40'43.000" W
70.70 m
8103201
71705
YQM

Download Data

Hourly Data (June 2012)
Hourly Data Report for June 10, 2012
Temp Definition
°C
Dew Point Temp Definition
°C
Rel Hum Definition
%
Wind Dir Definition
10's deg

Wind Spd Definition
km/h
Visibility Definition
km
Stn Press Definition
kPa
Hmdx Definition


Wind Chill Definition


Weather Definition


TIME
00:00 Legend Double Dagger 11.7 11.6 99 28 6 3.2 100.04     Rain Showers,Fog
01:00 Legend Double Dagger 11.6 11.5 99 30 5 4.0 100.08     Rain Showers,Fog
02:00 Legend Double Dagger 11.6 11.6 100 3 11 1.2 100.15     Drizzle,Fog
03:00 Legend Double Dagger 11.7 11.7 100 2 13 2.0 100.20     Drizzle,Fog
04:00 Legend Double Dagger 11.2 11.1 99 3 18 8.1 100.32     Drizzle,Fog
05:00 Legend Double Dagger 10.6 10.3 98 1 21 10.0 100.43     Cloudy
06:00 Legend Double Dagger 10.2 10.1 99 35 17 2.4 100.53     Rain,Drizzle,Fog
07:00 Legend Double Dagger 10.2 9.8 97 1 23 6.4 100.61     Drizzle,Fog
08:00 Legend Double Dagger 10.7 10.3 97 1 22 9.7 100.69     Fog
09:00 Legend Double Dagger 10.8 10.4 97 35 21 8.1 100.77     Fog
10:00 Legend Double Dagger 10.8 10.4 97 0 28 10.0 100.83     LegendNANA
11:00 Legend Double Dagger 12.1 11.0 93 35 22 10.0 100.94     Cloudy
12:00 Legend Double Dagger 11.3 10.7 96 36 23 9.7 101.06     Drizzle
13:00 Legend Double Dagger 11.7 11.1 96 1 16 10.0 101.09     Drizzle
14:00 Legend Double Dagger 11.7 11.1 96 1 19 10.0 101.12     Drizzle
15:00 Legend Double Dagger 12.9 12.1 95 36 15 10.0 101.20     LegendNANA
16:00 Legend Double Dagger 14.0 12.1 88 2 14 10.0 101.23     LegendNANA
17:00 Legend Double Dagger 14.0 11.7 86 2 16 10.0 101.32     Mostly Cloudy
18:00 Legend Double Dagger 13.0 11.1 88 2 19 10.0 101.34     LegendNANA
19:00 Legend Double Dagger 12.7 10.6 87 1 15 10.0 101.41     LegendNANA
20:00 Legend Double Dagger 10.7 9.8 94 35 13 10.0 101.48     Mainly Clear
21:00 Legend Double Dagger 9.1 8.8 98 3 9 10.0 101.53     LegendNANA
22:00 Legend Double Dagger 9.5 9.4 99 35 13 1.2 101.62     Fog
23:00 Legend Double Dagger 9.3 9.3 100 35 10 0.8 101.69     Fog

Notes on Data Quality.

Legend

  • E = Estimated
  • M = Missing
  • NA = Not Available
  • ‡ = Partner data that is not subject to review by the National Climate Archives
Date modified: